Location: Sungai Dangang
(2.7500°N, 113.8333°E)
Time: 05:23:48
(UTC+00:00)

USA 215 - Pass Details

Date: 16 May 2021
Orbit: 1100 x 1107 km, 123.0° (Epoch: 14 June)

Event Time Altitude Azimuth Distance (km) Brightness Sun altitude
Rises 20:52:55 0° 163° (SSE) 3,917 6.1 -19.7°
Reaches altitude 10° 20:55:40 10° 172° (S) 2,958 5.4 -19.1°
Maximum altitude 21:01:22 33° 233° (SW) 1,756 3.8 -17.8°
Drops below altitude 10° 21:07:05 10° 295° (WNW) 2,949 5.1 -16.5°
Sets 21:09:50 0° 304° (NW) 3,904 5.8 -15.8°
